Novato, CA

4:57 AM PST on December 15, 2019 (GMT -0800)
Gnoss

Weather History for KDVO - October, 2019

Change the Weather History Date:

Thursday, October 24, 2019

  Actual Average (KAPC) Record (KAPC)
Temperature  
Mean Temperature 71 °F -  
Max Temperature 89 °F 75 °F 92 °F (2017)
Min Temperature 53 °F 48 °F 35 °F (2001)
Cooling Degree Days 6    
Growing Degree Days 21 (Base 50)    
Moisture  
Dew Point 27 °F    
Average Humidity 20    
Maximum Humidity 58    
Minimum Humidity 9    
Precipitation  
Precipitation 0.00 in - - ()
Sea Level Pressure  
Sea Level Pressure 30.01 in    
Wind  
Wind Speed 5 mph ()    
Max Wind Speed 12 mph    
Max Gust Speed 15 mph    
Visibility 9.9 miles    
Events      
Averages and records for this station are not official NWS values.
T = Trace of Precipitation, MM = Missing Value Source: Averaged Metar Reports

Daily Weather History Graph

Daily Weather History Graph

Search for Another Location

Airport or City:

Astronomy

Oct. 24, 2019 Rise Set
Actual Time 7:27 AM PDT 6:20 PM PDT
Civil Twilight 7:00 AM PDT 6:47 PM PDT
Nautical Twilight 6:29 AM PDT 7:18 PM PDT
Astronomical Twilight 5:59 AM PDT 7:48 PM PDT
Moon 3:09 AM PDT (10/24) 4:46 PM PDT (10/24)
Length of Visible Light 11h 46m
Length of Day
10h 52m
Waning Crescent, 16% of the Moon is Illuminated
Oct 24
Waning Crescent
Oct 27
New
Nov 4
First Quarter
Nov 12
Full
Nov 19
Last Quarter

Hourly Weather History & Observations

Time (PDT) Temp. Dew Point Humidity Pressure Visibility Wind Dir Wind Speed Gust Speed Precip Events Conditions
12:15 AM 77.0 °F 14.0 °F 9% 29.94 in 10.0 mi Calm Calm - N/A   Clear
12:35 AM 73.4 °F 17.6 °F 12% 29.95 in 10.0 mi Calm Calm - N/A   Clear
12:55 AM 71.6 °F 15.8 °F 12% 29.94 in 10.0 mi NNE 5.8 mph - N/A   Clear
1:15 AM 66.2 °F 19.4 °F 17% 29.95 in 10.0 mi NNW 9.2 mph - N/A   Clear
1:35 AM 71.6 °F 15.8 °F 12% 29.95 in 10.0 mi NNW 4.6 mph - N/A   Clear
1:55 AM 71.6 °F 15.8 °F 12% 29.94 in 10.0 mi NNW 9.2 mph - N/A   Clear
2:15 AM 71.6 °F 17.6 °F 13% 29.94 in 10.0 mi North 5.8 mph 12.7 mph N/A   Clear
2:35 AM 69.8 °F 19.4 °F 15% 29.94 in 10.0 mi Calm Calm - N/A   Clear
2:55 AM 66.2 °F 23.0 °F 19% 29.96 in 10.0 mi Variable 4.6 mph - N/A   Clear
3:15 AM 75.2 °F 14.0 °F 10% 29.96 in 10.0 mi ENE 4.6 mph - N/A   Clear
3:35 AM 69.8 °F 17.6 °F 14% 29.95 in 10.0 mi Calm Calm - N/A   Clear
3:55 AM 71.6 °F 15.8 °F 12% 29.96 in 10.0 mi Calm Calm - N/A   Clear
4:15 AM 66.2 °F 17.6 °F 15% 29.96 in 10.0 mi SW 5.8 mph - N/A   Clear
4:35 AM 69.8 °F 17.6 °F 14% 29.96 in 10.0 mi Calm Calm - N/A   Clear
4:55 AM 62.6 °F 21.2 °F 20% 29.95 in 10.0 mi NE 6.9 mph - N/A   Clear
5:15 AM 66.2 °F 23.0 °F 19% 29.96 in 10.0 mi South 5.8 mph - N/A   Clear
5:35 AM 66.2 °F 21.2 °F 18% 29.97 in 10.0 mi SSW 3.5 mph - N/A   Clear
5:55 AM 64.4 °F 23.0 °F 21% 29.97 in 10.0 mi South 6.9 mph - N/A   Clear
6:15 AM 62.6 °F 26.6 °F 26% 29.98 in 10.0 mi SSW 8.1 mph - N/A   Clear
6:35 AM 60.8 °F 26.6 °F 27% 29.99 in 10.0 mi SSW 5.8 mph - N/A   Clear
6:55 AM 66.2 °F 24.8 °F 21% 29.99 in 10.0 mi SW 10.4 mph - N/A   Clear
7:15 AM 60.8 °F 28.4 °F 29% 29.99 in 10.0 mi SSW 6.9 mph - N/A   Clear
7:35 AM 60.8 °F 26.6 °F 27% 29.99 in 10.0 mi South 5.8 mph - N/A   Clear
7:55 AM 62.6 °F 30.2 °F 30% 30.00 in 10.0 mi Variable 5.8 mph - N/A   Clear
8:15 AM 66.2 °F 28.4 °F 24% 30.01 in 10.0 mi SSW 8.1 mph - N/A   Clear
8:35 AM 68.0 °F 28.4 °F 23% 30.02 in 10.0 mi SW 5.8 mph - N/A   Clear
8:55 AM 71.6 °F 28.4 °F 20% 30.03 in 10.0 mi South 6.9 mph - N/A   Clear
9:35 AM 73.4 °F 32.0 °F 22% 30.05 in 10.0 mi South 9.2 mph - N/A   Clear
9:55 AM 75.2 °F 32.0 °F 21% 30.05 in 10.0 mi SSW 9.2 mph - N/A   Clear
10:15 AM 77.0 °F 32.0 °F 19% 30.05 in 10.0 mi South 6.9 mph - N/A   Clear
10:35 AM 78.8 °F 28.4 °F 16% 30.05 in 10.0 mi Variable 6.9 mph - N/A   Clear
10:55 AM 80.6 °F 28.4 °F 15% 30.05 in 10.0 mi SSE 5.8 mph - N/A   Clear
11:15 AM 82.4 °F 24.8 °F 12% 30.05 in 10.0 mi SE 8.1 mph - N/A   Clear
11:35 AM 84.2 °F 24.8 °F 11% 30.05 in 10.0 mi SE 5.8 mph 15.0 mph N/A   Clear
11:55 AM 86.0 °F 24.8 °F 11% 30.05 in 10.0 mi Variable 5.8 mph - N/A   Clear
12:15 PM 86.0 °F 24.8 °F 11% 30.05 in 10.0 mi SE 6.9 mph 12.7 mph N/A   Clear
12:35 PM 86.0 °F 24.8 °F 11% 30.04 in 10.0 mi SSE 10.4 mph - N/A   Clear
12:55 PM 86.0 °F 26.6 °F 12% 30.04 in 9.0 mi SSE 9.2 mph - N/A   Clear
1:15 PM 87.8 °F 26.6 °F 11% 30.03 in 10.0 mi SSE 11.5 mph - N/A   Clear
1:35 PM 87.8 °F 28.4 °F 12% 30.03 in 9.0 mi SE 10.4 mph - N/A   Clear
1:55 PM 89.6 °F 26.6 °F 10% 30.03 in 9.0 mi SE 6.9 mph - N/A   Clear
2:15 PM 87.8 °F 28.4 °F 12% 30.02 in 10.0 mi ESE 10.4 mph - N/A   Clear
2:35 PM 87.8 °F 26.6 °F 11% 30.02 in 10.0 mi SE 6.9 mph - N/A   Clear
2:55 PM 89.6 °F 24.8 °F 10% 30.01 in 10.0 mi ESE 9.2 mph 15.0 mph N/A   Clear
3:15 PM 89.6 °F 24.8 °F 10% 30.01 in 7.0 mi SE 9.2 mph - N/A   Clear
3:35 PM 87.8 °F 24.8 °F 10% 30.01 in 10.0 mi SE 10.4 mph - N/A   Clear
3:55 PM 87.8 °F 23.0 °F 9% 30.02 in 9.0 mi SE 8.1 mph - N/A   Clear
4:15 PM 89.6 °F 23.0 °F 9% 30.01 in 9.0 mi SE 9.2 mph - N/A   Clear
4:35 PM 89.6 °F 24.8 °F 10% 30.01 in 10.0 mi SE 9.2 mph - N/A   Clear
4:55 PM 87.8 °F 23.0 °F 9% 30.01 in 9.0 mi SE 9.2 mph - N/A   Clear
5:15 PM 86.0 °F 23.0 °F 10% 30.01 in 10.0 mi SE 6.9 mph - N/A   Clear
5:35 PM 86.0 °F 23.0 °F 10% 30.01 in 10.0 mi SSE 5.8 mph - N/A   Clear
5:55 PM 84.2 °F 26.6 °F 12% 30.01 in 10.0 mi SW 4.6 mph - N/A   Clear
6:15 PM 80.6 °F 26.6 °F 14% 30.01 in 10.0 mi SW 6.9 mph - N/A   Clear
6:35 PM 78.8 °F 26.6 °F 15% 30.01 in 10.0 mi SW 5.8 mph - N/A   Clear
6:55 PM 75.2 °F 32.0 °F 21% 30.02 in 10.0 mi SSW 5.8 mph - N/A   Clear
7:15 PM 73.4 °F 33.8 °F 23% 30.03 in 10.0 mi SSW 5.8 mph - N/A   Clear
7:35 PM 71.6 °F 35.6 °F 27% 30.03 in 10.0 mi South 4.6 mph - N/A   Clear
7:55 PM 69.8 °F 35.6 °F 28% 30.04 in 10.0 mi South 5.8 mph - N/A   Clear
8:15 PM 68.0 °F 33.8 °F 28% 30.04 in 10.0 mi South 4.6 mph - N/A   Clear
8:35 PM 66.2 °F 41.0 °F 40% 30.04 in 10.0 mi SSW 5.8 mph - N/A   Clear
8:55 PM 64.4 °F 37.4 °F 37% 30.05 in 10.0 mi South 5.8 mph - N/A   Clear
9:15 PM 64.4 °F 39.2 °F 40% 30.05 in 10.0 mi South 8.1 mph - N/A   Clear
9:35 PM 64.4 °F 37.4 °F 37% 30.05 in 10.0 mi South 6.9 mph - N/A   Clear
9:55 PM 62.6 °F 39.2 °F 42% 30.06 in 10.0 mi South 6.9 mph - N/A   Clear
10:15 PM 64.4 °F 33.8 °F 32% 30.07 in 10.0 mi SE 4.6 mph - N/A   Clear
10:55 PM 62.6 °F 39.2 °F 42% 30.08 in 10.0 mi Calm Calm - N/A   Clear
11:15 PM 59.0 °F 35.6 °F 42% 30.08 in 10.0 mi Calm Calm - N/A   Clear
11:35 PM 53.6 °F 37.4 °F 54% 30.09 in 10.0 mi Calm Calm - N/A   Clear
11:55 PM 55.4 °F 41.0 °F 58% 30.09 in 10.0 mi Calm Calm - N/A   Clear